Regional Weather Roundup
Issued by NWS

Home | Current Version | Previous Version | Graphics & Text | Print | Product List | Glossary Off
Versions: 1 2 3 4 5 6 7 8 9 10 11 12 13 14 15 16 17 18 19 20 21 22 23 24 25 26 27 28 29 30 31 32 33 34 35 36 37 38 39 40 41 42 43 44 45 46 47 48 49 50

000
ASUS43 KMKX 241721
RWRWI

WISCONSIN REGIONAL WEATHER ROUNDUP
NATIONAL WEATHER SERVICE MILWAUKEE/SULLIVAN WI
1100 AM CST MON NOV 24 2014

NOTE: "FAIR" INDICATES FEW OR NO CLOUDS BELOW 12,000 FEET WITH NO
SIGNIFICANT WEATHER AND/OR OBSTRUCTIONS TO VISIBILITY.

WIZ001-002-006>008-014>016-023>028-241800-
NORTHWEST WISCONSIN

CITY           SKY/WX    TMP DP  RH WIND       PRES   REMARKS
SUPERIOR ARPT  LGT SNOW  30  26  86 N10G18    29.35R WCI  21
ASHLAND        LGT SNOW  31  30  96 N13       29.29R VSB 3/4 WCI  21
HAYWARD        LGT SNOW  31  29  92 VRB5      29.26R VSB 3/4 WCI  26
SIREN          LGT SNOW  26  24  93 NW15      29.36S VSB 3/4 WCI  14
CUMBERLAND     LGT SNOW  27  23  86 NW21G28   29.30R VSB 1   WCI  13
RICE LAKE      LGT SNOW  28  25  88 W18G26    29.31R WCI  15
CHETEK         SNOW      28  26  94 W9G21     29.29R VSB 1/2 WCI  19
LADYSMITH      LGT SNOW  32  31  94 NW14G20   29.24R VSB 1   WCI  22
EAU CLAIRE     LGT SNOW  28  25  88 W16       29.29R VSB 3/4 WCI  16
MENOMONIE      LGT SNOW  28  26  92 W21G28    29.32R VSB 3/4 WCI  15
NEW RICHMOND   CLOUDY    26  24  93 NW20G25   29.38R WCI  12
OSCEOLA        CLOUDY    26  25  99 NW18G25   29.43R FOG     WCI  12
$$

WIZ003>005-009-010-017-018-241800-
NORTH CENTRAL WISCONSIN

CITY           SKY/WX    TMP DP  RH WIND       PRES   REMARKS
MANITOWISH WTR LGT SNOW  32  32 100 N13       29.14S VSB 1   WCI  22
ARBOR VITAE    LGT SNOW  34  32  94 N13G20    29.13S WCI  25
WOODRUFF       LGT SNOW  34  32  94 N13G20    29.13S WCI  25
RHINELANDER    LGT SNOW  33  32  96 NW7G20    29.11S FOG     WCI  27
EAGLE RIVER    FLURRIES  33  32  96 N15G22    29.11R WCI  22
LAND O LAKES   LGT SNOW  32  32 100 N12G20    29.13R WCI  23
PHILLIPS       LGT SNOW  32  31  98 N10       29.17R WCI  24
TOMAHAWK       LGT SNOW  32  32  99 NW9G17    29.14S WCI  24
MEDFORD        LGT SNOW  32  32  99 NW13      29.16R WCI  23
MERRILL        LGT SNOW  34  33  97 NW9       29.12S WCI  27
$$

WIZ029-030-035-036-043>047-241800-
CENTRAL WISCONSIN

CITY           SKY/WX    TMP DP  RH WIND       PRES   REMARKS
WAUSAU         LGT RAIN  35  33  92 NW15      29.11R WCI  25
MOSINEE        LGT RAIN  34  34 100 NW14      29.13  WCI  24
MARSHFIELD     LGT SNOW  33  31  92 NW17G23   29.16R VSB 3/4 WCI  22
STEVENS POINT  HVY RAIN  32  32  99 W8        29.13R WCI  25
WAUPACA        DRIZZLE   40  39  95 W8        29.10S WCI  35
WAUTOMA        CLOUDY    37  36  93 W15G22    29.14R FOG     WCI  28
WISC RAPIDS    LGT SNOW  33  31  92 NW14      29.17R WCI  23
CAMP DOUGLAS   SNOW      32  32 100 W18G28    29.21R VSB 1/2 WCI  20
$$

WIZ011>013-019>022-031-037>040-048>050-241800-
NORTHEAST WISCONSIN

CITY           SKY/WX    TMP DP  RH WIND       PRES   REMARKS
ANTIGO         LGT RAIN  34  34 100 N16       29.08S WCI  24
SHAWANO        CLOUDY    42  40  95 NW6       29.07S
OCONTO         CLOUDY    42  42  99 NW5       29.05R
STURGEON BAY   CLOUDY    41  37  87 NW8       29.05R
GREEN BAY      CLOUDY    43  40  89 NW12      29.06S
MANITOWOC      LGT RAIN  44  43  96 W10       29.06R
APPLETON       DRIZZLE   39  39 100 NW12      29.08R WCI  32
CLINTONVILLE   RAIN      39  37  93 NW7       29.08R WCI  34
OSHKOSH        LGT RAIN  40  38  93 W12       29.09R FOG     WCI  33
$$

WIZ032>034-041-042-053>061-241800-
SOUTHWEST WISCONSIN

CITY           SKY/WX    TMP DP  RH WIND       PRES   REMARKS
LA CROSSE      LGT SNOW  30  26  85 NW15      29.33R VSB 1   WCI  19
SPARTA         SNOW      30  29  96 W12G20    29.28R VSB<1/4 WCI  21
VIROQUA        CLOUDY    28  28 100 W15G24    29.27R VSB 1   WCI  17
BOSCOBEL       LGT SNOW  30  26  85 W14G22    29.33R VSB 3/4 WCI  19
PRAIRIE DU CHI LGT SNOW  27  24  87 W23       29.36R VSB 1   WCI  12
PLATTEVILLE    CLOUDY    28  26  94 W20G30    29.32R VSB 1   WCI  15
$$

WIZ056-057-062-063-064-067-068-241800-
SOUTH CENTRAL WISCONSIN

CITY           SKY/WX    TMP DP  RH WIND       PRES   REMARKS
REEDSBURG      SNOW      32  31  98 W13       29.21R VSB 1/4 WCI  22
BARABOO/DELLS  SNOW      32  32  99 W15       29.19R VSB 1/2 WCI  22
LONE ROCK      SNOW      35  29  78 W20G26    29.27R VSB 1/2 WCI  24
MINERAL POINT  LGT SNOW  32  30  93 W23G35    29.26R VSB 1   WCI  19
MADISON        LGT SNOW  33  31  92 W8G18     29.21R VSB 3/4 WCI  26
MIDDLETON      CLOUDY    34  34 100 W17       29.21R VSB 1   WCI  23
WATERTOWN      DRIZZLE   36  36 100 W12G17    29.16R WCI  28
MONROE         SNOW      30  30 100 W32G38    29.25R VSB 1/2 WCI  15
JANESVILLE     SNOW      34  32  93 W17       29.22R VSB 1/4 WCI  23
$$

WIZ051-052-058>065-066-070>072-241800-
SOUTHEAST WISCONSIN

CITY           SKY/WX    TMP DP  RH WIND       PRES   REMARKS
MILWAUKEE      LGT RAIN  41  37  86 W14G23    29.13R FOG
WAUKESHA       RAIN      37  36  93 W13G20    29.15R FOG     WCI  29
MILWAUKEE/TIMM DRZL/FOG  39  37  93 W14G24    29.13R VSB 1   WCI  31
RACINE         LGT RAIN  41  38  89 W18G25    29.14R
BURLINGTON     MIX PCPN  35  34  96 W16G22    29.17R WCI  25
KENOSHA        RAIN      39  37  92 W21G28    29.15R FOG     WCI  29
FOND DU LAC    LGT RAIN  40  37  89 W14G21    29.10R WCI  32
SHEBOYGAN      LGT RAIN  42  40  92 W12       29.07R
WEST BEND      DRIZZLE   37  36  93 W15       29.10R WCI  28
JUNEAU         LGT RAIN  36  35  97 W13G20    29.15R WCI  27
$$

LSZ147-162-241800-
LAKE SUPERIOR

STATION/POSITION TIME  TEMP    WIND        PRES    WAVE
                       AIR SEA DIR/SP/G            HT/PER
                 (UTC) (F)     (DEG/KT/KT) (MB)    (FT/S)
DEVILS ISLAND    1700   27     350/ 25/ 27  992.8R
PORT WING        1600   33     340/ 20/ 25  992.2R
SAXON HARBOR     1640   32     360/ 21/ 26  991.2R
$$

LMZ867-665-643>646-241800-
LAKE MICHIGAN

STATION/POSITION TIME  TEMP    WIND        PRES    WAVE
                       AIR SEA DIR/SP/G            HT/PER
                 (UTC) (F)     (DEG/KT/KT) (MB)    (FT/S)
CHAMBERS ISLAND  1600   42     290/  2/  4  983.7R
N MID LAKE BUOY  1650   42 42  300/ 10/ 12  982.6R   2/ 5
NORTHPORT PIER   1600   42     280/  7/ 10  983.4R
SISTER BAY       1558             CALM       N/A
KEWAUNEE LAKESHO 1700   44     310/  7/ 12  983.0R
SHEBOYGAN LAKESH 1700   43 38  270/ 11/ 13  984.7R
PORT WASHINGTON  1640   42     270/ 10/ 16  986.1R
MILWAUKEE LAKESH 1700   40     270/ 17/ 27   N/A
S MID LAKE BUOY  1650   43 42  240/ 21/ 27  985.5R   1/ 3
KENOSHA   LAKESH 1700   40     250/ 21/ 31  987.8R
$$

TC  - TEMPERATURE IN CELSIUS
VSB - VISIBILITY IN STATUTE MILES
WCI - WIND CHILL INDEX
HX  - HEAT INDEX



USA.gov is the U.S. government's official web portal to all federal, state and local government web resources and services.